Location: Cormont
(50.5693°N, 1.7416°E)
Time: 12:01:58
(UTC+00:00)

STARLINK-69 - Pass Details

Date: 21 October 2019
Orbit: 548 x 551 km, 53.0° (Epoch: 16 November)

Event Time Altitude Azimuth Distance (km) Brightness Sun altitude
Rises 18:43:14 0° 281° (WNW) 2,719 8.8 -18.7°
Reaches altitude 10° 18:45:30 10° 285° (WNW) 1,825 7.5 -19.1°
Maximum altitude 18:49:37 64° 7° (N) 613 3.7 -19.7°
Enters shadow 18:50:26 50° 61° (ENE) 703 3.8 -19.8°
